Regional Weather Roundup
Issued by NWS Charleston, WV

Home | Current Version | Previous Version | Graphics & Text | Print | Product List | Glossary On
Versions: 1 2 3 4 5 6 7 8 9 10 11 12 13 14 15 16 17 18 19 20 21 22 23 24 25 26 27 28 29 30 31 32 33 34 35 36 37 38 39 40 41 42 43 44 45 46 47 48 49 50
000
ASUS41 KRLX 010910
RWRRLX
West Virginia Regional Weather Roundup
National Weather Service Charleston WV
500 AM EDT WED OCT 01 2014

Note: "fair" indicates few or no clouds below 12,000 feet with no
significant weather and/or obstructions to visibility.

WVZ003-011000-
Northern Panhandle of West Virginia

CITY           SKY/WX    TMP DP  RH WIND       PRES   REMARKS
WHEELING       CLOUDY    58  55  90 NE3       29.97S
$$

WVZ009-011000-
Northwest West Virginia

CITY           SKY/WX    TMP DP  RH WIND       PRES   REMARKS
PARKERSBURG    CLOUDY    58  56  93 NW3       29.99R
$$

WVZ006-011000-
Western West Virginia

CITY           SKY/WX    TMP DP  RH WIND       PRES   REMARKS
HUNTINGTON     CLOUDY    60  56  86 N6        29.96S
$$

WVZ015-011000-
West Central West Virginia

CITY           SKY/WX    TMP DP  RH WIND       PRES   REMARKS
CHARLESTON     CLOUDY    61  59  93 CALM      29.95S FOG
$$

WVZ031-011000-
North Central West Virginia

CITY           SKY/WX    TMP DP  RH WIND       PRES   REMARKS
CLARKSBURG     FOG       57  57 100 CALM      29.96S VSB 1/4
MORGANTOWN     FOG       56  53  90 CALM      29.98R VSB 1/4
$$

WVZ035-042-045-011000-
South Central West Virginia

CITY           SKY/WX    TMP DP  RH WIND       PRES   REMARKS
BECKLEY          N/A     54  51  90 CALM      29.99S
BLUEFIELD      CLEAR     59  50  72 W6        30.02R
LEWISBURG      PTCLDY    50  47  91 CALM      30.00R
$$

WVZ047-011000-
Northern Mountains of West Virginia

CITY           SKY/WX    TMP DP  RH WIND       PRES   REMARKS
ELKINS         PTCLDY    51  51 100 CALM      29.99S FOG
$$

WVZ052-011000-
Eastern Panhandle of West Virginia

CITY           SKY/WX    TMP DP  RH WIND       PRES   REMARKS
MARTINSBURG    CLOUDY    62  58  86 CALM      29.98R FOG
PETERSBURG     FOG      N/A N/A N/A CALM      29.98S VSB 1/2
$$



USA.gov is the U.S. government's official web portal to all federal, state and local government web resources and services.